QPF
0.06 0.07 0.05 0.05 0.04 0.05 0.09 0.12 0.10 0.06 0.05 0.06 0.06 0.07 0.08 0.10 0.11 0.10 0.10 0.10 0.10 0.07 0.06 0.06 0.04 0.03 0.03 0.03 0.02 0.02 0.01 0.01 0.01 0.01 0.02 0.03 0.04 0.06
0.08 0.07 0.06 0.06 0.06 0.05 0.08 0.10 0.12 0.11 0.08 0.06 0.06 0.07 0.05 0.05 0.07 0.06 0.05 0.07 0.08 0.08 0.08 0.07 0.06 0.04 0.04 0.03 0.02 0.02 0.02 0.01 0.02 0.02 0.02 0.03 0.03 0.04
0.07 0.08 0.07 0.06 0.05 0.03 0.06 0.07 0.07 0.08 0.07 0.05 0.05 0.04 0.04 0.04 0.05 0.05 0.05 0.05 0.05 0.07 0.07 0.07 0.07 0.06 0.05 0.04 0.03 0.02 0.02 0.02 0.02 0.03 0.03 0.03 0.03 0.03
0.09 0.07 0.06 0.04 0.03 0.03 0.04 0.05 0.06 0.07 0.08 0.05 0.04 0.03 0.04 0.03 0.03 0.04 0.04 0.04 0.05 0.07 0.07 0.05 0.04 0.04 0.05 0.05 0.05 0.04 0.04 0.05 0.05 0.05 0.05 0.05 0.05 0.04
0.10 0.07 0.06 0.07 0.05 0.05 0.05 0.06 0.06 0.06 0.07 0.05 0.03 0.02 0.03 0.02 0.03 0.04 0.06 0.05 0.06 0.07 0.06 0.05 0.05 0.06 0.06 0.06 0.06 0.06 0.06 0.06 0.05 0.05 0.04 0.04 0.04 0.04
0.07 0.07 0.08 0.09 0.08 0.08 0.06 0.04 0.04 0.04 0.05 0.05 0.04 0.03 0.03 0.02 0.05 0.04 0.04 0.04 0.05 0.05 0.06 0.07 0.07 0.07 0.07 0.08 0.08 0.07 0.06 0.06 0.05 0.05 0.05 0.04 0.04 0.04
0.07 0.07 0.06 0.07 0.07 0.05 0.04 0.03 0.04 0.04 0.05 0.05 0.04 0.02 0.02 0.02 0.03 0.03 0.04 0.03 0.04 0.04 0.05 0.05 0.06 0.06 0.07 0.08 0.08 0.08 0.09 0.09 0.09 0.09 0.08 0.06 0.05 0.05
0.06 0.05 0.06 0.08 0.07 0.06 0.05 0.05 0.04 0.04 0.04 0.04 0.03 0.02 0.01 0.02 0.03 0.04 0.05 0.06 0.04 0.04 0.05 0.05 0.06 0.07 0.08 0.08 0.09 0.09 0.08 0.07 0.07 0.07 0.06 0.05 0.05 0.04
0.05 0.06 0.06 0.07 0.07 0.06 0.06 0.06 0.05 0.04 0.04 0.04 0.03 0.02 0.02 0.02 0.03 0.03 0.05 0.05 0.05 0.04 0.05 0.07 0.08 0.08 0.08 0.08 0.08 0.07 0.07 0.07 0.06 0.06 0.05 0.04 0.04 0.03
0.05 0.06 0.05 0.06 0.08 0.06 0.05 0.04 0.04 0.03 0.03 0.03 0.02 0.02 0.02 0.02 0.03 0.04 0.05 0.06 0.05 0.05 0.07 0.09 0.10 0.09 0.07 0.06 0.06 0.05 0.05 0.05 0.05 0.05 0.06 0.06 0.06 0.05
0.04 0.04 0.04 0.05 0.08 0.08 0.07 0.07 0.06 0.04 0.04 0.04 0.03 0.03 0.03 0.02 0.03 0.04 0.05 0.05 0.04 0.05 0.07 0.08 0.06 0.06 0.06 0.05 0.05 0.06 0.05 0.05 0.04 0.04 0.05 0.06 0.07 0.08
0.04 0.04 0.06 0.08 0.10 0.11 0.10 0.08 0.05 0.03 0.03 0.03 0.03 0.03 0.03 0.03 0.03 0.03 0.04 0.04 0.04 0.05 0.06 0.07 0.06 0.06 0.07 0.05 0.04 0.04 0.03 0.03 0.04 0.06 0.08 0.10 0.09 0.08
0.04 0.04 0.05 0.07 0.07 0.06 0.06 0.04 0.03 0.02 0.02 0.02 0.01 0.01 0.02 0.02 0.02 0.03 0.04 0.04 0.04 0.04 0.04 0.04 0.04 0.05 0.06 0.05 0.05 0.05 0.04 0.03 0.03 0.03 0.04 0.06 0.06 0.05
0.03 0.04 0.04 0.04 0.03 0.02 0.02 0.02 0.02 0.02 0.01 0.01 0.02 0.02 0.02 0.02 0.02 0.03 0.03 0.04 0.04 0.03 0.03 0.04 0.03 0.03 0.04 0.04 0.03 0.03 0.02 0.01 0.01 0.01 0.02 0.03 0.03 0.03
0.02 0.02 0.03 0.03 0.02 0.02 0.02 0.03 0.02 0.02 0.03 0.03 0.03 0.03 0.03 0.03 0.03 0.03 0.04 0.04 0.04 0.04 0.04 0.03 0.02 0.02 0.02 0.02 0.02 0.02 0.03 0.03 0.02 0.02 0.03 0.04 0.04 0.05
0.01 0.02 0.02 0.02 0.01 0.01 0.02 0.02 0.03 0.04 0.04 0.03 0.03 0.02 0.02 0.02 0.03 0.03 0.04 0.04 0.04 0.04 0.04 0.04 0.04 0.05 0.05 0.06 0.07 0.08 0.09 0.10 0.10 0.08 0.07 0.06 0.06 0.07
0.02 0.01 0.01 0.01 0.02 0.02 0.02 0.03 0.04 0.03 0.03 0.03 0.03 0.03 0.03 0.03 0.02 0.03 0.03 0.03 0.04 0.04 0.05 0.05 0.07 0.08 0.10 0.12 0.13 0.13 0.12 0.11 0.10 0.09 0.07 0.07 0.07 0.07
0.02 0.02 0.01 0.01 0.02 0.02 0.02 0.03 0.03 0.03 0.03 0.03 0.04 0.04 0.04 0.04 0.03 0.03 0.04 0.03 0.03 0.03 0.03 0.03 0.04 0.05 0.07 0.09 0.09 0.09 0.09 0.10 0.11 0.12 0.11 0.09 0.08 0.07
0.02 0.02 0.02 0.02 0.02 0.02 0.02 0.02 0.02 0.02 0.03 0.02 0.02 0.02 0.03 0.03 0.02 0.03 0.03 0.03 0.04 0.04 0.04 0.05 0.06 0.08 0.09 0.10 0.11 0.10 0.09 0.09 0.09 0.08 0.06 0.04 0.04 0.03
0.01 0.01 0.02 0.01 0.01 0.01 0.01 0.01 0.00 0.00 0.01 0.01 0.01 0.01 0.02 0.02 0.02 0.02 0.03 0.03 0.05 0.06 0.07 0.07 0.07 0.07 0.08 0.10 0.10 0.09 0.08 0.06 0.05 0.04 0.03 0.02 0.02 0.02
0.01 0.01 0.01 0.01 0.01 0.01 0.01 0.00 0.00 0.00 0.00 0.01 0.01 0.01 0.01 0.02 0.03 0.03 0.04 0.05 0.06 0.07 0.07 0.06 0.05 0.05 0.05 0.06 0.07 0.06 0.05 0.04 0.03 0.03 0.02 0.01 0.01 0.01
0.01 0.01 0.01 0.01 0.01 0.01 0.01 0.01 0.00 0.00 0.01 0.01 0.01 0.00 0.01 0.01 0.01 0.02 0.02 0.02 0.02 0.02 0.02 0.02 0.02 0.03 0.04 0.05 0.07 0.07 0.07 0.06 0.05 0.04 0.02 0.01 0.01 0.01
0.01 0.01 0.00 0.00 0.00 0.00 0.00 0.00 0.00 0.00 0.00 0.00 0.00 0.00 0.00 0.00 0.01 0.01 0.01 0.01 0.01 0.01 0.02 0.04 0.05 0.05 0.06 0.07 0.08 0.08 0.08 0.07 0.04 0.02 0.01 0.01 0.01 0.01
MSLP
1017.66 1017.94 1018.26 1018.60 1018.94 1019.22 1019.44 1019.58 1019.64 1019.63 1019.57 1019.49 1019.42 1019.36 1019.34 1019.35 1019.40 1019.49 1019.61 1019.75 1019.92 1020.12 1020.32 1020.53 1020.73 1020.90 1021.03 1021.12 1021.17 1021.18 1021.17 1021.14 1021.12 1021.11 1021.11 1021.12 1021.13 1021.13
1017.20 1017.47 1017.77 1018.09 1018.41 1018.69 1018.93 1019.10 1019.22 1019.28 1019.30 1019.29 1019.28 1019.27 1019.28 1019.30 1019.34 1019.39 1019.47 1019.57 1019.70 1019.86 1020.04 1020.24 1020.45 1020.64 1020.80 1020.93 1021.01 1021.05 1021.06 1021.05 1021.03 1021.01 1021.00 1021.00 1020.99 1020.97
1016.73 1016.99 1017.28 1017.59 1017.89 1018.18 1018.44 1018.65 1018.83 1018.97 1019.07 1019.16 1019.22 1019.27 1019.31 1019.34 1019.37 1019.39 1019.42 1019.46 1019.53 1019.64 1019.79 1019.97 1020.16 1020.36 1020.55 1020.72 1020.84 1020.92 1020.97 1020.98 1020.98 1020.98 1020.98 1020.98 1020.97 1020.96
1016.22 1016.49 1016.78 1017.08 1017.39 1017.70 1017.99 1018.25 1018.50 1018.72 1018.92 1019.08 1019.23 1019.34 1019.41 1019.45 1019.46 1019.45 1019.42 1019.41 1019.42 1019.47 1019.57 1019.72 1019.90 1020.11 1020.32 1020.51 1020.67 1020.79 1020.88 1020.94 1020.97 1021.00 1021.02 1021.04 1021.06 1021.07
1015.66 1015.94 1016.25 1016.57 1016.90 1017.24 1017.57 1017.90 1018.22 1018.52 1018.80 1019.05 1019.26 1019.42 1019.53 1019.58 1019.57 1019.53 1019.46 1019.40 1019.35 1019.35 1019.41 1019.53 1019.69 1019.89 1020.11 1020.33 1020.52 1020.68 1020.81 1020.91 1020.98 1021.05 1021.10 1021.16 1021.22 1021.27
1015.01 1015.33 1015.67 1016.02 1016.39 1016.78 1017.17 1017.56 1017.95 1018.33 1018.68 1019.00 1019.26 1019.47 1019.61 1019.67 1019.66 1019.60 1019.51 1019.40 1019.32 1019.29 1019.31 1019.40 1019.55 1019.74 1019.96 1020.19 1020.41 1020.60 1020.76 1020.89 1021.01 1021.11 1021.21 1021.32 1021.43 1021.53
1014.28 1014.64 1015.02 1015.43 1015.86 1016.30 1016.75 1017.21 1017.67 1018.10 1018.52 1018.89 1019.20 1019.44 1019.60 1019.68 1019.68 1019.62 1019.52 1019.41 1019.32 1019.27 1019.28 1019.35 1019.49 1019.68 1019.89 1020.12 1020.34 1020.55 1020.73 1020.89 1021.04 1021.18 1021.32 1021.47 1021.62 1021.78
1013.46 1013.87 1014.31 1014.78 1015.28 1015.79 1016.31 1016.83 1017.34 1017.83 1018.28 1018.69 1019.03 1019.30 1019.49 1019.59 1019.61 1019.57 1019.50 1019.41 1019.33 1019.29 1019.31 1019.39 1019.52 1019.70 1019.91 1020.13 1020.35 1020.55 1020.74 1020.91 1021.07 1021.24 1021.41 1021.60 1021.79 1021.99
1012.62 1013.08 1013.58 1014.11 1014.67 1015.25 1015.83 1016.41 1016.96 1017.49 1017.98 1018.41 1018.78 1019.07 1019.28 1019.41 1019.48 1019.48 1019.45 1019.40 1019.37 1019.37 1019.41 1019.51 1019.64 1019.82 1020.02 1020.22 1020.42 1020.61 1020.79 1020.95 1021.12 1021.30 1021.49 1021.69 1021.91 1022.14
1011.80 1012.30 1012.86 1013.46 1014.08 1014.72 1015.36 1015.98 1016.57 1017.13 1017.63 1018.08 1018.47 1018.78 1019.02 1019.19 1019.30 1019.37 1019.40 1019.42 1019.45 1019.50 1019.58 1019.70 1019.85 1020.02 1020.20 1020.39 1020.56 1020.73 1020.89 1021.04 1021.20 1021.38 1021.57 1021.79 1022.02 1022.26
1011.08 1011.62 1012.22 1012.88 1013.56 1014.25 1014.93 1015.58 1016.20 1016.78 1017.30 1017.76 1018.16 1018.50 1018.77 1018.98 1019.15 1019.28 1019.38 1019.47 1019.57 1019.67 1019.80 1019.95 1020.11 1020.28 1020.45 1020.61 1020.77 1020.91 1021.04 1021.18 1021.33 1021.50 1021.70 1021.92 1022.15 1022.40
1010.53 1011.10 1011.73 1012.42 1013.14 1013.87 1014.58 1015.27 1015.91 1016.49 1017.03 1017.50 1017.91 1018.27 1018.58 1018.83 1019.05 1019.24 1019.41 1019.57 1019.73 1019.89 1020.06 1020.23 1020.40 1020.57 1020.73 1020.88 1021.01 1021.14 1021.26 1021.39 1021.53 1021.70 1021.90 1022.12 1022.35 1022.60
1010.20 1010.78 1011.43 1012.14 1012.88 1013.63 1014.36 1015.06 1015.71 1016.31 1016.85 1017.33 1017.76 1018.14 1018.47 1018.77 1019.04 1019.28 1019.50 1019.71 1019.92 1020.12 1020.32 1020.51 1020.69 1020.86 1021.02 1021.16 1021.29 1021.41 1021.53 1021.66 1021.81 1021.99 1022.19 1022.41 1022.65 1022.89
1010.11 1010.68 1011.33 1012.04 1012.79 1013.54 1014.27 1014.97 1015.62 1016.23 1016.77 1017.27 1017.71 1018.11 1018.47 1018.79 1019.09 1019.37 1019.63 1019.88 1020.12 1020.35 1020.57 1020.77 1020.96 1021.13 1021.29 1021.44 1021.57 1021.70 1021.84 1021.99 1022.16 1022.35 1022.57 1022.80 1023.04 1023.28
1010.24 1010.79 1011.43 1012.12 1012.84 1013.58 1014.30 1014.99 1015.64 1016.24 1016.79 1017.29 1017.75 1018.16 1018.54 1018.89 1019.21 1019.51 1019.79 1020.06 1020.31 1020.55 1020.77 1020.98 1021.18 1021.36 1021.54 1021.70 1021.85 1022.01 1022.18 1022.36 1022.56 1022.78 1023.01 1023.26 1023.50 1023.74
1010.55 1011.08 1011.68 1012.33 1013.02 1013.72 1014.41 1015.08 1015.72 1016.31 1016.86 1017.37 1017.83 1018.26 1018.65 1019.01 1019.34 1019.64 1019.93 1020.20 1020.46 1020.70 1020.93 1021.15 1021.35 1021.55 1021.74 1021.93 1022.11 1022.31 1022.51 1022.73 1022.97 1023.21 1023.47 1023.72 1023.96 1024.18
1010.99 1011.47 1012.02 1012.63 1013.26 1013.92 1014.57 1015.21 1015.82 1016.41 1016.95 1017.46 1017.93 1018.36 1018.75 1019.12 1019.45 1019.76 1020.04 1020.31 1020.56 1020.80 1021.03 1021.26 1021.47 1021.69 1021.91 1022.13 1022.36 1022.59 1022.83 1023.09 1023.35 1023.62 1023.88 1024.13 1024.36 1024.55
1011.48 1011.91 1012.41 1012.95 1013.52 1014.12 1014.72 1015.32 1015.91 1016.47 1017.01 1017.52 1017.99 1018.43 1018.83 1019.19 1019.52 1019.83 1020.11 1020.37 1020.61 1020.85 1021.09 1021.32 1021.56 1021.80 1022.05 1022.31 1022.57 1022.84 1023.12 1023.39 1023.67 1023.94 1024.19 1024.42 1024.62 1024.77
1011.95 1012.33 1012.77 1013.24 1013.75 1014.28 1014.84 1015.39 1015.95 1016.50 1017.03 1017.54 1018.01 1018.45 1018.85 1019.22 1019.55 1019.85 1020.13 1020.38 1020.63 1020.87 1021.12 1021.37 1021.63 1021.90 1022.18 1022.47 1022.76 1023.05 1023.35 1023.63 1023.90 1024.16 1024.38 1024.57 1024.72 1024.82
1012.35 1012.69 1013.06 1013.47 1013.92 1014.39 1014.89 1015.41 1015.94 1016.47 1016.99 1017.50 1017.98 1018.42 1018.83 1019.20 1019.53 1019.83 1020.11 1020.37 1020.62 1020.87 1021.13 1021.40 1021.69 1021.98 1022.29 1022.60 1022.92 1023.22 1023.52 1023.80 1024.05 1024.27 1024.45 1024.59 1024.68 1024.72
1012.65 1012.95 1013.27 1013.62 1014.01 1014.43 1014.88 1015.37 1015.87 1016.39 1016.91 1017.42 1017.90 1018.36 1018.77 1019.15 1019.48 1019.79 1020.06 1020.33 1020.59 1020.86 1021.13 1021.43 1021.74 1022.06 1022.39 1022.72 1023.04 1023.35 1023.64 1023.89 1024.11 1024.29 1024.42 1024.50 1024.53 1024.50
1012.83 1013.10 1013.38 1013.68 1014.02 1014.40 1014.82 1015.28 1015.77 1016.28 1016.80 1017.31 1017.80 1018.26 1018.68 1019.07 1019.41 1019.72 1020.01 1020.28 1020.55 1020.84 1021.13 1021.44 1021.77 1022.11 1022.46 1022.80 1023.13 1023.43 1023.70 1023.93 1024.11 1024.25 1024.33 1024.35 1024.32 1024.25
1012.91 1013.15 1013.40 1013.67 1013.98 1014.33 1014.72 1015.16 1015.64 1016.14 1016.66 1017.18 1017.68 1018.15 1018.58 1018.97 1019.32 1019.64 1019.93 1020.22 1020.51 1020.80 1021.11 1021.44 1021.79 1022.14 1022.49 1022.84 1023.16 1023.45 1023.70 1023.91 1024.06 1024.16 1024.20 1024.18 1024.12 1024.01
Thickness
5742 5741 5740 5739 5738 5737 5736 5732 5725 5720 5722 5729 5731 5734 5734 5732 5731 5730 5729 5728 5726 5724 5722 5720 5717 5715 5712 5710 5708 5706 5704 5702 5700 5698 5696 5694 5692 5690
5741 5740 5739 5738 5737 5737 5735 5733 5730 5725 5720 5725 5727 5730 5730 5730 5728 5727 5726 5725 5724 5722 5720 5718 5716 5713 5711 5708 5706 5704 5702 5700 5698 5695 5693 5691 5690 5687
5739 5738 5736 5736 5734 5734 5733 5731 5728 5725 5720 5722 5724 5726 5725 5724 5724 5723 5722 5722 5721 5720 5717 5715 5713 5711 5708 5705 5703 5700 5698 5696 5694 5692 5690 5688 5686 5684
5736 5734 5733 5733 5731 5730 5729 5727 5725 5724 5720 5718 5719 5719 5719 5720 5719 5719 5718 5718 5717 5716 5715 5713 5710 5708 5705 5702 5699 5697 5694 5692 5690 5688 5685 5683 5681 5679
5733 5730 5729 5728 5726 5726 5725 5723 5722 5721 5719 5715 5714 5715 5714 5714 5713 5713 5713 5712 5712 5711 5710 5708 5706 5703 5701 5698 5695 5693 5690 5687 5685 5682 5680 5678 5676 5673
5730 5728 5726 5724 5723 5722 5720 5718 5718 5715 5714 5711 5709 5708 5708 5708 5706 5705 5704 5704 5704 5705 5704 5702 5700 5697 5695 5693 5690 5687 5684 5681 5678 5676 5674 5671 5669 5666
5726 5724 5722 5721 5720 5718 5716 5714 5712 5710 5707 5704 5702 5701 5700 5699 5697 5698 5696 5696 5696 5696 5695 5694 5692 5690 5687 5685 5682 5680 5677 5674 5672 5668 5666 5664 5661 5658
5720 5718 5718 5716 5715 5713 5712 5711 5709 5705 5701 5698 5695 5693 5693 5693 5693 5692 5689 5687 5685 5688 5685 5684 5683 5681 5679 5677 5675 5673 5670 5667 5664 5660 5658 5655 5652 5649
5715 5713 5712 5711 5709 5708 5706 5705 5702 5700 5698 5694 5690 5689 5688 5688 5687 5685 5683 5680 5679 5679 5677 5674 5674 5672 5670 5668 5666 5664 5661 5658 5655 5651 5648 5645 5643 5640
5710 5708 5706 5703 5703 5701 5699 5697 5694 5692 5691 5689 5687 5685 5684 5683 5681 5679 5676 5674 5674 5672 5670 5664 5663 5661 5661 5658 5656 5653 5650 5647 5644 5641 5638 5635 5632 5630
5703 5702 5700 5698 5696 5694 5692 5688 5686 5684 5684 5682 5681 5679 5678 5677 5675 5672 5668 5664 5661 5661 5659 5655 5652 5650 5648 5646 5645 5642 5639 5636 5633 5630 5627 5625 5622 5619
5695 5694 5692 5691 5689 5686 5683 5680 5676 5674 5674 5674 5672 5671 5669 5668 5666 5663 5660 5655 5651 5649 5648 5645 5641 5638 5635 5635 5633 5630 5627 5624 5621 5618 5615 5613 5609 5606
5687 5685 5683 5681 5679 5677 5675 5672 5669 5667 5665 5663 5661 5659 5658 5656 5655 5653 5651 5647 5642 5639 5638 5636 5631 5627 5623 5621 5620 5618 5615 5611 5608 5605 5602 5599 5596 5593
5679 5676 5674 5672 5670 5667 5665 5663 5661 5658 5655 5652 5649 5647 5644 5643 5642 5641 5639 5637 5635 5631 5629 5626 5621 5617 5612 5608 5605 5604 5602 5599 5596 5592 5589 5586 5583 5580
5670 5668 5665 5662 5660 5657 5654 5652 5650 5647 5644 5640 5637 5635 5633 5632 5631 5629 5627 5625 5623 5621 5618 5615 5611 5607 5602 5597 5593 5590 5588 5585 5582 5579 5575 5572 5569 5566
5660 5657 5655 5652 5649 5645 5643 5640 5637 5634 5631 5627 5625 5624 5623 5621 5618 5616 5614 5612 5609 5606 5605 5602 5599 5595 5590 5587 5582 5578 5575 5571 5568 5565 5561 5558 5555 5552
5650 5647 5643 5639 5635 5632 5630 5627 5625 5622 5619 5616 5614 5612 5609 5607 5605 5603 5601 5598 5594 5591 5589 5588 5585 5582 5579 5574 5570 5566 5562 5558 5555 5551 5547 5544 5541 5539
5640 5634 5629 5625 5621 5618 5616 5613 5611 5608 5606 5603 5601 5598 5596 5594 5592 5590 5588 5584 5580 5578 5576 5574 5571 5568 5564 5561 5558 5553 5549 5545 5542 5539 5535 5530 5528 5526
5628 5621 5616 5612 5608 5605 5602 5600 5598 5596 5593 5591 5588 5585 5583 5581 5579 5576 5574 5571 5568 5566 5563 5561 5558 5555 5550 5546 5543 5541 5537 5534 5530 5526 5523 5519 5516 5514
5614 5609 5604 5600 5597 5593 5590 5587 5585 5583 5581 5578 5576 5573 5570 5568 5565 5562 5560 5558 5555 5553 5550 5548 5545 5541 5537 5533 5529 5528 5526 5523 5519 5515 5511 5507 5504 5503
5601 5597 5593 5589 5585 5582 5579 5576 5573 5570 5568 5566 5563 5560 5557 5555 5552 5550 5547 5545 5542 5539 5536 5534 5533 5531 5527 5523 5518 5515 5513 5512 5509 5504 5500 5496 5492 5489
5589 5585 5582 5578 5574 5571 5568 5565 5562 5559 5556 5553 5550 5548 5545 5542 5540 5538 5535 5533 5530 5527 5524 5522 5521 5519 5515 5511 5506 5502 5500 5499 5498 5495 5491 5488 5483 5479
5578 5574 5570 5567 5563 5560 5557 5553 5550 5546 5543 5540 5537 5535 5533 5530 5528 5525 5523 5520 5517 5515 5512 5509 5507 5504 5501 5497 5494 5490 5489 5487 5485 5483 5481 5479 5477 5475